Flag for Cuba Weather past 2 weeks in Santiago de Cuba, Cuba

Now
79 °F

Passing clouds.


Feels Like: 82 °F
Forecast: 76 / 90 °F
Wind: 6 mph from Northeast

Location: Santiago De Cuba - Oriente

Current Time: Aug 23, 2014 at 3:31:56 AM

Latest Report: Aug 23, 2014 at 2:51 AM


Visibility: 6 mi

Pressure: 29.83 "Hg

Humidity: 79%

Dew point: 72 °F

Location of Santiago de CubaLocation

Historic Weather in Santiago de Cuba — Graph

°F

Santiago de Cuba temperature yesterday

Maximum temperature yesterday: 95 °F (at 11:50 AM)
Minimum temperature yesterday: 77 °F (at 3:51 AM)
Average temperature yesterday: 84 °F

Past Weeks' High & Low Weather Summary

 TemperatureHumidityPressure
High95 °F (Aug 22, 11:50 AM)89% (Aug 8, 1:52 AM)30.09 "Hg (Aug 8, 1:52 AM)
Low73 °F (Aug 8, 2:50 AM)36% (Aug 12, 10:50 AM)29.86 "Hg (Aug 22, 4:51 PM)
Average83 °F69%30.00 "Hg
* Reported Aug 8 1:52 AM — Aug 23 1:51 AM, Santiago de Cuba, Weather by CustomWeather, © 2014

Note: Actual official high and low records may vary slightly from our data, if they occured in-between our weather recording intervals... More about our weather records

Advertising

Santiago de Cuba weather history for previous 24 hours

 ConditionsComfort  
Time TempWeatherWind HumidityBarometerVisibility
1:51 AM
Aug 23
81 °FPassing clouds.7 mph74%29.86 "Hg6 mi
12:51 AM81 °FPassing clouds.6 mph74%29.89 "Hg6 mi
11:51 PM
Aug 22
81 °FPassing clouds.8 mph74%29.89 "Hg6 mi
10:50 PM82 °FPassing clouds.9 mph70%29.92 "Hg6 mi
9:52 PM82 °FPassing clouds.9 mph66%29.89 "Hg6 mi
8:51 PM84 °FPassing clouds.12 mph62%29.89 "Hg6 mi
7:53 PM86 °FPassing clouds.10 mph59%29.86 "Hg6 mi
6:52 PM88 °FPassing clouds.7 mph52%29.86 "Hg6 mi
5:50 PM88 °FScattered clouds.9 mph62%29.86 "HgN/A
4:51 PM88 °FScattered clouds.8 mph66%29.86 "HgN/A
3:50 PM88 °FScattered clouds.12 mph62%29.89 "HgN/A
2:50 PM88 °FScattered clouds.13 mph59%29.89 "HgN/A
1:52 PM91 °FScattered clouds.9 mph49%29.89 "HgN/A
12:50 PM93 °FPassing clouds.10 mph41%29.92 "HgN/A
11:50 AM95 °FPassing clouds.12 mph41%29.95 "HgN/A
10:50 AM91 °FPassing clouds.12 mph49%29.95 "HgN/A
9:50 AM88 °FPassing clouds.12 mph55%29.95 "HgN/A
8:50 AM82 °FPassing clouds.10 mph70%29.98 "HgN/A
7:50 AM81 °FPassing clouds.10 mph70%29.98 "Hg6 mi
6:51 AM77 °FPassing clouds.10 mph79%29.95 "Hg6 mi
5:51 AM77 °FPassing clouds.10 mph79%29.98 "Hg6 mi
4:51 AM77 °FPassing clouds.9 mph79%29.95 "Hg6 mi
3:51 AM77 °FPassing clouds.9 mph79%29.95 "Hg6 mi
Weather by CustomWeather, © 2014

See weather overviewHow to use our weather pages